Sigonella, Italy

9:37 PM CET on March 24, 2017 (GMT +0100)
Sigonella

Weather History for LICZ - November, 2012

Change the Weather History Date:

Friday, November 9, 2012

  Actual Average Record
Temperature  
Mean Temperature 60 °F -  
Max Temperature 75 °F 67 °F 81 °F (2013)
Min Temperature 44 °F 48 °F 41 °F (2006)
Degree Days  
Heating Degree Days 6    
Growing Degree Days 10 (Base 50)    
Moisture  
Dew Point 51 °F    
Average Humidity 83    
Maximum Humidity 100    
Minimum Humidity 36    
Precipitation  
Precipitation 0.00 in 0.07 in - ()
Sea Level Pressure  
Sea Level Pressure 30.12 in    
Wind  
Wind Speed 4 mph ()    
Max Wind Speed 13 mph    
Max Gust Speed -    
Visibility 10.1 miles    
Events      
Averages and records for this station are not official NWS values.
T = Trace of Precipitation, MM = Missing Value Source: Averaged Metar Reports

Daily Weather History Graph

Daily Weather History Graph

Search for Another Location

Airport or City:

Trip Planner

Search our weather history database for the weather conditions in past years. The results will help you decide how hot, cold, wet, or windy it might be!

Date:

Astronomy

Nov. 09, 2012 Rise Set
Actual Time 6:33 AM CET 4:54 PM CET
Civil Twilight 6:06 AM CET 5:21 PM CET
Nautical Twilight 5:34 AM CET 5:52 PM CET
Astronomical Twilight 5:04 AM CET 6:23 PM CET
Moon 1:19 AM CET (11/9) 1:52 PM CET (11/9)
Length of Visible Light 11h 15m
Length of Day
10h 20m
Waning Crescent, 25% of the Moon is Illuminated
Nov 9
Waning Crescent
Nov 13
New
Nov 20
First Quarter
Nov 28
Full
Dec 6
Last Quarter

Hourly Weather History & Observations

Time (CET) Temp. Windchill Dew Point Humidity Pressure Visibility Wind Dir Wind Speed Gust Speed Precip Events Conditions
12:55 AM 50.0 °F - 50.0 °F 100% 30.18 in 6.2 mi West 3.5 mph - N/A   Partly Cloudy
1:00 AM 51 °F - 51 °F 99% 30.21 in 6 mi West 3.5 mph - -   Scattered Clouds
1:55 AM 48.2 °F - 48.2 °F 100% 30.18 in - West 4.6 mph - N/A   Clear
2:55 AM 48.2 °F - 48.2 °F 100% 30.15 in - WNW 4.6 mph - N/A   Clear
3:55 AM 48.2 °F - 48.2 °F 100% 30.15 in - West 4.6 mph - N/A   Clear
4:00 AM 47 °F - 47 °F 100% 30.17 in 6 mi West 4.6 mph - -  
4:55 AM 46.4 °F 45.2 °F 46.4 °F 100% 30.15 in - WNW 3.5 mph - N/A   Clear
5:55 AM 46.4 °F 45.2 °F 46.4 °F 100% 30.15 in - NW 3.5 mph - N/A   Clear
6:55 AM 44.6 °F 43.1 °F 44.6 °F 100% 30.15 in - WSW 3.5 mph - N/A   Clear
7:00 AM 45 °F - 45 °F 98% 30.17 in 9 mi WSW 3.5 mph - -  
7:55 AM 48.2 °F - 48.2 °F 100% 30.15 in - West 4.6 mph - N/A   Clear
8:55 AM 55.4 °F - 53.6 °F 94% 30.15 in - West 3.5 mph - N/A   Clear
9:55 AM 62.6 °F - 53.6 °F 72% 30.15 in - NNW 3.5 mph - N/A   Clear
10:00 AM 62 °F - 54 °F 67% 30.16 in 16 mi NNW 3.5 mph - -  
10:55 AM 66.2 °F - 53.6 °F 64% 30.12 in - NW 2.3 mph - N/A   Clear
11:55 AM 69.8 °F - 53.6 °F 56% 30.09 in - SSE 1.2 mph - N/A   Clear
12:55 PM 73.4 °F - 51.8 °F 47% 30.09 in - West 3.5 mph - N/A   Clear
1:00 PM 73 °F - 51 °F 36% 30.10 in 16 mi West 3.5 mph - -  
1:55 PM 75.2 °F - 51.8 °F 44% 30.06 in - SSW 5.8 mph - N/A   Clear
2:55 PM 68.0 °F - 53.6 °F 60% 30.06 in - East 12.7 mph - N/A   Clear
3:55 PM 66.2 °F - 55.4 °F 68% 30.06 in - East 11.5 mph - N/A   Clear
4:00 PM 66 °F - 54 °F 57% 30.08 in 16 mi East 11.5 mph - -  
4:55 PM 62.6 °F - 53.6 °F 72% 30.06 in - East 5.8 mph - N/A   Clear
5:55 PM 60.8 °F - 55.4 °F 82% 30.06 in - ESE 3.5 mph - N/A   Clear
8:55 PM 53.6 °F - 53.6 °F 100% 30.09 in - WNW 3.5 mph - N/A   Clear
9:55 PM 53.6 °F - 53.6 °F 100% 30.09 in - WNW 3.5 mph - N/A   Clear
10:00 PM 53 °F - 53 °F 100% 30.11 in 6 mi WNW 3.5 mph - -  
10:55 PM 51.8 °F - 51.8 °F 100% 30.12 in - West 2.3 mph - N/A   Clear
11:55 PM 50.0 °F - 50.0 °F 100% 30.12 in - West 3.5 mph - N/A   Clear